Weather in Tioman

Malaysia     2°47′17″N   104°10′16″E
temp.,
°C
wind,
m/s
gust,
m/s
humid.,
%
clouds,
%
prec.,
mm/h
press.,
hPa
HPBL,
m
20 april, tue
tue2023:00+29se4469100 0.0 1011681
02:00+29sse447296 0.0 1010809
05:00+29s337356 0.1 1009731
08:00+29s337358 0.3 1011689
11:00+29ssw337675 0.4 1012623
14:00+28s2274100 2.0 1009420
17:00+29e447282 0.1 1007441
20:00+29ese44725 1.1 1009459
21 april, wed
wed2123:00+30se55726 0.0 1010742
02:00+29sse557476 1.6 1009588
05:00+28sse4474100 5.0 1009339
08:00+29s4569100 5.8 1010667
11:00+29s5570100 0.0 1011787
14:00+29s4470100 0.0 1009765
17:00+29se3370100 0.3 1007462
20:00+29sse4472100 1.3 1009512
22 april, thu
thu2223:00+28sse4576100 2.7 1011300
02:00+29s447063 3.5 1009469
05:00+29ssw447291 0.1 1009622
08:00+28sw3373100 4.7 1010247
11:00+26nw2281100 2.6 1011203
14:00+28s237199 2.7 1009277
17:00+29se0168100 0.6 1007365
20:00+28s337681 3.9 1009139
23 april, fri
fri2323:00+27sw3376100 8.6 1011149
02:00+26w6689100 19.9 1010410
05:00+26wnw4585100 6.9 1009373
08:00+27sw4579100 7.8 1010426
11:00+27ssw6680100 0.1 1011502
14:00+28ssw5676100 0.1 1008507
17:00+29sse447294 0.7 1007422
20:00+29sw8870100 2.1 1009776
24 april, sat
sat2423:00+29sw5669100 0.4 1011646
02:00+28sw4470100 0.4 1010492
05:00+28wsw4576100 0.0 1009596
08:00+28w5577100 0.0 1010747
11:00+28sw4476100 0.0 1011546
14:00+28sw3372100 0.0 1009458
17:00+29ssw2367100 0.0 1007554
20:00+29s4570100 0.3 1009453